Location: Diati
(11.8376°N, 2.5966°E)
Time: 17:50:10
(UTC+00:00)

CSL-04 Rocket - Pass Details

Date: 21 September 2020
Orbit: 806 x 860 km, 98.9° (Epoch: 19 October)

Event Time Altitude Azimuth Distance (km) Brightness Sun altitude
Rises 19:05:55 0° 164° (SSE) 3,332 6.6 -20.3°
Reaches altitude 10° 19:08:14 10° 163° (SSE) 2,407 5.9 -20.9°
Maximum altitude 19:13:34 80° 77° (ENE) 841 3.5 -22.2°
Drops below altitude 10° 19:18:58 10° 350° (N) 2,441 6.3 -23.5°
Sets 19:21:20 0° 350° (N) 3,383 7.0 -24.1°
